Starlink 30993

operational
NORAD ID: 58489 Int'l Des: 2023-186 Owner: SPXS Country: US Constellation: starlink
LEOCIRCULAR

Über Starlink 30993

Beschreibung wird geladen...

Live-Position

3D-Globus wird geladen...

Nächste Überflüge

Höhenverlauf

Altitude vs Time

uPlot chart will show altitude changes over time

Zweizeiliger Elementsatz

1 58489U 23186S 25258.79183643 .00001586 00000-0 13245-3 0 9995
2 58489 43.0021 297.6841 0001589 276.0088 84.0573 15.02542633 99531
Epoch: 15. Sept. 2025 • Age: 22 hours

Aktueller Status

Höhe 558.1 km
Geschwindigkeit 7.59 km/s
Subsatellitenpunkt 10.41°N, 46.87°E
Startdatum 3. Dez. 2023
Alter 1.7 years
Typ internet

Technische Details

Klassifizierung Payload
Masse 730.00 kg
Trockenmasse 700.00 kg
Gesamtmasse 730.00 kg
Länge 0.30 m
Durchmesser 4.10 m
Spannweite 29.00 m
Form Box + pan
Hersteller SPXS
Bus-Typ Starlink V2M
Phasenstatus In Orbit
Besitzer/Staat SPXS/US

Große Konstellationen

Loading constellations...